Weather reports worldwide

Advertisment
Hondo, tx, United States of America (2074514): temperature & dewpoint: 20.03.2019 02:00:00 - 26.03.2019 02:00:00 (CDT)Hondo, tx, United States of America (2074514): wind speed: 20.03.2019 02:00:00 - 26.03.2019 02:00:00 (CDT)Hondo, tx, United States of America (2074514): wind direction: 20.03.2019 02:00:00 - 26.03.2019 02:00:00 (CDT)Hondo, tx, United States of America (2074514): reduced air pressure: 20.03.2019 02:00:00 - 26.03.2019 02:00:00 (CDT)Hondo, tx, United States of America (2074514): visibility: 20.03.2019 02:00:00 - 26.03.2019 02:00:00 (CDT)Hondo, tx, United States of America (2074514): precipitation: 20.03.2019 02:00:00 - 26.03.2019 02:00:00 (CDT)
Date & Time tt [°C] td [°C] ff [km/h] ff [kn] dd ppp [hPa] vv [km] rr [mm]
26.03.2019 02:00:00 19,4 9,4 13 7 SE 1022,3 16 -
26.03.2019 01:00:00 19,4 8,9 22 12 ENE 1021,4 16 -
26.03.2019 00:00:00 19,4 10,6 18 10 NE 1021,4 16 -
25.03.2019 23:00:00 20,0 14,4 15 8 ENE 1020,8 16 -
25.03.2019 22:00:00 22,2 15,6 15 8 ENE 1019,7 16 -
25.03.2019 21:00:00 25,0 16,1 15 8 E 1018,5 16 -
25.03.2019 20:00:00 26,7 16,7 16 9 E 1017,7 16 -
25.03.2019 19:00:00 28,3 17,8 13 7 ESE 1017,0 16 -
25.03.2019 18:00:00 28,9 18,3 11 6 SE 1016,8 16 -
25.03.2019 17:00:00 28,3 17,8 15 8 SE 1016,7 16 -
25.03.2019 16:00:00 31,1 18,3 16 9 ESE 1017,1 16 -
25.03.2019 15:00:00 28,3 17,8 8 4 ESE 1017,7 16 -
25.03.2019 14:00:00 27,8 18,9 9 5 S 1018,4 16 -
25.03.2019 13:00:00 26,7 19,4 - - - 1019,2 16 -
25.03.2019 12:00:00 23,9 20,0 8 4 - 1019,7 16 -
25.03.2019 11:00:00 21,7 20,0 8 4 ENE 1019,9 10 -
25.03.2019 10:00:00 20,6 20,0 5 3 ESE 1018,8 8 -
25.03.2019 09:00:00 20,6 20,0 0 0 N 1018,1 2,8 -
25.03.2019 08:00:00 20,0 20,0 0 0 N 1017,3 0,4 -
25.03.2019 07:00:00 20,0 20,0 5 3 SSE 1016,5 0,8 -
25.03.2019 06:00:00 20,0 20,0 8 4 SE 1016,2 2,4 -
25.03.2019 05:00:00 20,0 20,0 8 4 SE 1016,2 6 -
25.03.2019 04:00:00 20,0 20,0 11 6 SE 1016,1 10 -
25.03.2019 03:00:00 19,4 18,9 5 3 NE 1016,5 10 -
25.03.2019 02:00:00 17,8 17,8 5 3 ENE 1016,9 10 -
25.03.2019 01:00:00 20,0 18,9 9 5 SE 1016,8 16 -
25.03.2019 00:00:00 20,0 18,9 8 4 SE 1017,0 16 -
24.03.2019 23:00:00 21,1 18,9 15 8 SSE 1016,6 16 -
24.03.2019 22:00:00 19,4 16,1 9 5 N 1015,7 16 -
24.03.2019 21:00:00 22,2 17,2 0 0 N 1014,7 16 -
24.03.2019 20:00:00 24,4 18,3 8 4 SE 1014,2 16 -
24.03.2019 19:00:00 26,1 18,3 13 7 SSE 1014,0 16 -
24.03.2019 18:00:00 26,7 18,3 8 4 SSE 1014,6 16 -
24.03.2019 17:00:00 26,7 18,3 9 5 SSE 1014,8 16 -
24.03.2019 16:00:00 25,6 18,3 5 3 - 1015,4 16 -
24.03.2019 15:00:00 24,4 18,3 0 0 N 1016,0 16 -
24.03.2019 14:00:00 22,8 18,3 13 7 SE 1017,2 16 -
24.03.2019 13:00:00 22,2 17,8 9 5 S 1017,9 16 -
24.03.2019 12:00:00 21,1 18,3 8 4 S 1018,3 16 -
24.03.2019 11:00:00 20,6 17,8 15 8 SSE 1018,4 16 -
24.03.2019 10:00:00 20,6 18,3 15 8 SSE 1018,1 16 -
24.03.2019 09:00:00 19,4 18,3 9 5 SE 1017,7 8 -
24.03.2019 08:00:00 19,4 18,3 11 6 SE 1017,2 11 -
24.03.2019 07:00:00 19,4 18,3 13 7 SSE 1016,6 16 -
24.03.2019 06:00:00 19,4 17,8 15 8 SSE 1016,3 16 -
24.03.2019 05:00:00 19,4 17,8 11 6 SSE 1016,0 16 -
24.03.2019 04:00:00 20,0 17,8 16 9 SSE 1015,9 16 -
24.03.2019 03:00:00 20,0 17,8 13 7 SSE 1016,3 16 -
24.03.2019 02:00:00 20,0 17,8 18 10 SSE 1016,5 16 -
24.03.2019 01:00:00 20,0 17,8 18 10 SSE 1016,9 16 -
24.03.2019 00:00:00 20,0 17,8 18 10 SSE 1017,0 16 -
23.03.2019 23:00:00 20,0 17,8 22 12 SSE 1017,2 16 -
23.03.2019 22:00:00 20,6 17,8 21 11 SE 1016,5 16 -
23.03.2019 21:00:00 21,7 17,8 15 8 SE 1016,4 16 -
23.03.2019 20:00:00 22,2 17,8 16 9 SE 1015,6 16 -
23.03.2019 19:00:00 23,3 17,8 22 12 SE 1014,9 16 -
23.03.2019 18:00:00 24,4 17,8 21 11 SE 1014,6 16 -
23.03.2019 17:00:00 24,4 17,2 18 10 SE 1014,7 16 -
23.03.2019 16:00:00 23,3 17,8 15 8 SSE 1015,5 16 -
23.03.2019 15:00:00 22,8 17,2 9 5 SW 1016,3 16 -
23.03.2019 14:00:00 22,2 17,8 15 8 S 1016,9 16 -
23.03.2019 13:00:00 21,7 17,2 16 9 S 1017,4 16 -
23.03.2019 12:00:00 21,1 17,2 21 11 S 1017,5 16 -
23.03.2019 11:00:00 19,4 16,7 18 10 SSE 1017,5 16 -
23.03.2019 10:00:00 18,3 15,6 15 8 SE 1017,3 16 -
23.03.2019 09:00:00 17,8 14,4 5 3 ESE 1017,2 16 -
23.03.2019 08:00:00 17,2 14,4 8 4 E 1016,6 16 -
23.03.2019 07:00:00 17,8 13,9 5 3 ENE 1016,3 16 -
23.03.2019 06:00:00 17,8 13,9 8 4 ESE 1015,4 16 -
23.03.2019 05:00:00 16,7 13,9 13 7 SE 1014,8 16 -
23.03.2019 04:00:00 17,2 13,3 18 10 SE 1014,6 16 -
23.03.2019 03:00:00 18,3 12,8 16 9 SE 1015,5 16 -
23.03.2019 02:00:00 18,9 12,2 21 11 SSE 1016,7 16 -
23.03.2019 01:00:00 19,4 11,7 18 10 SSE 1016,9 16 -
23.03.2019 00:00:00 20,0 10,6 22 12 SE 1016,9 16 -
22.03.2019 23:00:00 21,1 10,6 21 11 SE 1016,9 16 -
22.03.2019 22:00:00 21,7 11,7 26 14 SSE 1016,2 16 -
22.03.2019 21:00:00 22,2 12,2 16 9 SE 1015,4 16 -
22.03.2019 20:00:00 22,8 12,2 16 9 SE 1015,1 16 -
22.03.2019 19:00:00 23,9 12,8 18 10 SE 1015,0 16 -
22.03.2019 18:00:00 23,9 13,3 21 11 SE 1014,8 16 -
22.03.2019 17:00:00 23,9 13,9 21 11 SE 1015,5 16 -
22.03.2019 16:00:00 24,4 12,8 28 15 SSE 1016,0 16 -
22.03.2019 15:00:00 26,1 13,3 28 15 SE 1016,9 16 -
22.03.2019 14:00:00 26,1 12,8 34 18 SSE 1018,1 16 -
22.03.2019 13:00:00 23,9 13,9 28 15 SSE 1019,3 16 -
22.03.2019 12:00:00 23,3 13,9 18 10 SSE 1019,7 16 -
22.03.2019 11:00:00 21,1 15,0 22 12 SSE 1020,3 16 -
22.03.2019 10:00:00 18,3 13,9 11 6 - 1020,7 16 -
22.03.2019 09:00:00 15,0 12,8 8 4 E 1020,4 16 -
22.03.2019 08:00:00 13,9 12,2 8 4 ENE 1020,1 16 -
22.03.2019 07:00:00 12,2 11,1 8 4 ENE 1018,7 16 -
22.03.2019 06:00:00 12,8 11,1 11 6 ENE 1018,8 16 -
22.03.2019 05:00:00 14,4 12,2 - - - 1018,6 16 -
22.03.2019 04:00:00 16,1 12,8 9 5 SSE 1019,2 16 -
22.03.2019 03:00:00 16,7 12,8 11 6 SE 1019,7 16 -
22.03.2019 02:00:00 16,1 12,2 13 7 SSE 1020,2 16 -
22.03.2019 01:00:00 16,1 11,1 8 4 ESE 1019,9 16 -
22.03.2019 00:00:00 15,0 10,0 5 3 NNE 1020,0 16 -
21.03.2019 23:00:00 17,8 10,6 8 4 E 1019,7 16 -
21.03.2019 22:00:00 17,8 10,6 15 8 SSE 1019,5 16 -
21.03.2019 21:00:00 19,4 11,1 15 8 SSE 1018,9 16 -
21.03.2019 20:00:00 20,6 11,1 11 6 SE 1018,9 16 -
21.03.2019 19:00:00 23,9 11,1 13 7 SSE 1018,8 16 -
21.03.2019 18:00:00 25,6 10,6 11 6 S 1018,9 16 -
21.03.2019 17:00:00 25,6 11,1 8 4 SW 1019,7 16 -
21.03.2019 16:00:00 26,1 11,7 5 3 E 1020,3 16 -
21.03.2019 15:00:00 23,9 10,6 0 0 N 1020,8 16 -
21.03.2019 14:00:00 23,9 11,7 13 7 E 1021,9 16 -
21.03.2019 13:00:00 22,2 12,2 8 4 E 1023,3 16 -
21.03.2019 12:00:00 20,0 12,2 11 6 E 1024,3 16 -
21.03.2019 11:00:00 18,9 11,1 13 7 E 1024,9 16 -
21.03.2019 10:00:00 15,6 11,7 5 3 ESE 1025,1 16 -
21.03.2019 09:00:00 14,4 12,2 11 6 NNE 1024,4 16 -
21.03.2019 08:00:00 14,4 12,8 8 4 NNE 1023,6 16 -
21.03.2019 07:00:00 15,0 13,9 8 4 ENE 1023,2 15 -
21.03.2019 06:00:00 15,0 14,4 13 7 ENE 1022,6 13 -
21.03.2019 05:00:00 13,3 12,8 11 6 E 1022,3 15 -
21.03.2019 04:00:00 12,8 12,8 11 6 NNE 1022,7 0,4 -
21.03.2019 03:00:00 13,3 12,8 8 4 SSE 1022,9 0,4 -
21.03.2019 02:00:00 15,6 15,0 11 6 NE 1023,0 16 -
21.03.2019 01:00:00 15,6 15,0 8 4 N 1023,1 16 -
21.03.2019 00:00:00 16,1 15,6 8 4 NNW 1023,2 16 -
20.03.2019 23:00:00 16,1 15,0 0 0 N 1023,2 16 0,3
20.03.2019 22:00:00 17,8 13,9 16 9 N 1023,1 16 0,0
20.03.2019 21:00:00 17,8 12,8 0 0 N 1021,9 16 -
20.03.2019 20:00:00 20,0 12,8 13 7 SW 1020,8 16 -
20.03.2019 19:00:00 22,2 13,3 21 11 S 1020,3 16 -
20.03.2019 18:00:00 23,3 13,3 13 7 SSE 1020,1 16 -
20.03.2019 17:00:00 22,8 12,8 5 3 - 1020,3 16 -
20.03.2019 16:00:00 22,8 12,8 8 4 SSE 1020,8 16 -
20.03.2019 15:00:00 22,2 13,3 13 7 E 1021,6 16 -
20.03.2019 14:00:00 21,7 13,3 0 0 N 1022,9 16 -
20.03.2019 13:00:00 19,4 12,8 11 6 ESE 1023,9 16 -
20.03.2019 12:00:00 18,9 12,2 13 7 SE 1024,0 16 -
20.03.2019 11:00:00 17,8 11,7 13 7 ESE 1023,8 16 -
20.03.2019 10:00:00 16,7 11,7 16 9 E 1023,5 16 -
20.03.2019 09:00:00 15,0 12,2 11 6 ENE 1023,0 16 0,0
20.03.2019 08:00:00 15,0 11,1 9 5 ENE 1022,1 16 -
20.03.2019 07:00:00 15,0 11,1 9 5 E 1021,3 16 0,0
20.03.2019 06:00:00 15,0 11,1 8 4 E 1020,9 16 0,0
20.03.2019 05:00:00 15,0 11,1 8 4 E 1020,7 16 -
20.03.2019 04:00:00 15,0 11,1 9 5 ESE 1021,0 16 -
20.03.2019 03:00:00 15,0 11,1 11 6 E 1021,4 16 -
20.03.2019 02:00:00 15,0 10,6 8 4 E 1021,8 16 -

tt = temperature
td = dewpoint
ff = wind speed
dd = wind direction
ppp = reduced air pressure
vv = visibility
rr = precipitation

Next stations